When you browse on this site, cookies collect data to enhance your experience and personalize the content and advertising you see.
Visit our Privacy Policy to learn more. By continuing to use the site, you agree to this use of cookies and data.
  • In Hungary
  • List of Countries
  • For 7 days
  • Water Temperature
  • Satellite Maps
  • Weather Map
  • News
  • Weather Widgets
  • user-avatar
    Login

    Hourly Weather Kerema

    Today, 21 November, Wednesday

    Time Temperature Precipitation Wind Pressure Humidity
    00:00 +27°C° 0 mm 2 mps 755 mmHg 89%
    01:00 +26°C° 0 mm 1 mps 755 mmHg 90%
    02:00 +26°C° 0 mm 1 mps 755 mmHg 90%
    03:00 +26°C° 0 mm 1 mps 755 mmHg 90%
    04:00 +26°C° 0 mm 1 mps 754 mmHg 89%
    05:00 +27°C° 0 mm 1 mps 755 mmHg 86%
    06:00 +27°C° 0 mm 1 mps 755 mmHg 82%
    07:00 +28°C° 0 mm 1 mps 755 mmHg 79%
    08:00 +31°C° 0 mm 1 mps 755 mmHg 68%
    09:00 +34°C° 0 mm 1 mps 755 mmHg 57%
    10:00 +37°C° 0 mm 1 mps 755 mmHg 46%
    11:00 +38°C° 0.1 mm 2 mps 755 mmHg 46%
    12:00 +38°C° 0.1 mm 2 mps 754 mmHg 46%
    13:00 +38°C° 0.1 mm 3 mps 754 mmHg 47%
    14:00 +37°C° 0.2 mm 3 mps 753 mmHg 50%
    15:00 +36°C° 0.2 mm 3 mps 753 mmHg 54%
    16:00 +36°C° 0.2 mm 3 mps 753 mmHg 57%
    17:00 +34°C° 0.2 mm 3 mps 753 mmHg 65%
    18:00 +31°C° 0.2 mm 3 mps 754 mmHg 74%
    19:00 +29°C° 0.2 mm 2 mps 754 mmHg 82%
    20:00 +28°C° 0 mm 2 mps 754 mmHg 84%
    21:00 +28°C° 0 mm 2 mps 755 mmHg 86%
    22:00 +28°C° 0 mm 2 mps 755 mmHg 88%
    23:00 +27°C° 0.1 mm 2 mps 755 mmHg 88%

    Tomorrow, 22 November, Thursday

    Time Temperature Precipitation Wind Pressure Humidity
    00:00 +27°C° 0.1 mm 1 mps 755 mmHg 88%
    01:00 +27°C° 0.1 mm 1 mps 755 mmHg 88%
    02:00 +27°C° 0 mm 1 mps 755 mmHg 88%
    03:00 +27°C° 0 mm 1 mps 754 mmHg 88%
    04:00 +26°C° 0 mm 1 mps 754 mmHg 87%
    05:00 +27°C° 0 mm 1 mps 755 mmHg 83%
    06:00 +28°C° 0 mm 1 mps 755 mmHg 80%
    07:00 +29°C° 0 mm 1 mps 756 mmHg 76%
    08:00 +32°C° 0 mm 1 mps 756 mmHg 65%
    09:00 +34°C° 0 mm 1 mps 756 mmHg 54%
    10:00 +37°C° 0 mm 1 mps 756 mmHg 44%
    11:00 +38°C° 0 mm 2 mps 755 mmHg 43%
    12:00 +39°C° 0 mm 3 mps 754 mmHg 43%
    13:00 +39°C° 0 mm 3 mps 754 mmHg 43%
    14:00 +38°C° 0.2 mm 3 mps 753 mmHg 48%
    15:00 +37°C° 0.2 mm 4 mps 753 mmHg 52%
    16:00 +36°C° 0.2 mm 4 mps 753 mmHg 57%
    17:00 +34°C° 0.2 mm 3 mps 753 mmHg 66%
    18:00 +31°C° 0.2 mm 3 mps 754 mmHg 74%
    19:00 +29°C° 0.2 mm 2 mps 755 mmHg 83%
    20:00 +29°C° 0.1 mm 2 mps 755 mmHg 84%
    21:00 +28°C° 0.1 mm 2 mps 756 mmHg 86%
    22:00 +28°C° 0.1 mm 1 mps 757 mmHg 88%
    23:00 +28°C° 0 mm 1 mps 756 mmHg 88%

    Day after tomorrow, 23 November, Friday

    Time Temperature Precipitation Wind Pressure Humidity
    00:00 +27°C° 0 mm 1 mps 756 mmHg 88%
    01:00 +27°C° 0 mm 1 mps 755 mmHg 88%
    02:00 +27°C° 0 mm 1 mps 755 mmHg 87%
    03:00 +27°C° 0 mm 1 mps 755 mmHg 86%
    04:00 +27°C° 0 mm 1 mps 754 mmHg 86%
    05:00 +27°C° 0 mm 1 mps 755 mmHg 82%
    06:00 +28°C° 0 mm 1 mps 755 mmHg 79%
    07:00 +29°C° 0 mm 1 mps 756 mmHg 76%
    08:00 +31°C° 0 mm 1 mps 756 mmHg 66%
    09:00 +34°C° 0 mm 1 mps 756 mmHg 57%
    10:00 +36°C° 0 mm 1 mps 756 mmHg 47%
    11:00 +37°C° 0 mm 2 mps 755 mmHg 47%
    12:00 +38°C° 0 mm 3 mps 755 mmHg 46%
    13:00 +38°C° 0 mm 4 mps 755 mmHg 46%
    14:00 +37°C° 0.3 mm 3 mps 754 mmHg 53%
    15:00 +35°C° 0.3 mm 3 mps 754 mmHg 60%
    16:00 +34°C° 0.3 mm 3 mps 754 mmHg 68%
    17:00 +31°C° 1.5 mm 3 mps 754 mmHg 76%
    18:00 +30°C° 1.5 mm 2 mps 755 mmHg 84%
    19:00 +28°C° 1.5 mm 2 mps 755 mmHg 93%
    20:00 +28°C° 0.8 mm 2 mps 756 mmHg 93%
    21:00 +27°C° 0.8 mm 1 mps 757 mmHg 93%
    22:00 +27°C° 0.8 mm 1 mps 757 mmHg 93%
    23:00 +27°C° 0.5 mm 1 mps 757 mmHg 93%

    24 November, Saturday

    Time Temperature Precipitation Wind Pressure Humidity
    00:00 +27°C° 0.5 mm 1 mps 757 mmHg 92%
    01:00 +26°C° 0.5 mm 1 mps 756 mmHg 92%
    02:00 +26°C° 0.3 mm 1 mps 756 mmHg 91%
    03:00 +26°C° 0.3 mm 1 mps 756 mmHg 90%
    04:00 +26°C° 0.3 mm 2 mps 756 mmHg 89%
    05:00 +26°C° 0 mm 2 mps 756 mmHg 86%
    06:00 +27°C° 0 mm 2 mps 757 mmHg 83%
    07:00 +27°C° 0 mm 2 mps 757 mmHg 79%
    08:00 +31°C° 0 mm 2 mps 757 mmHg 67%
    09:00 +34°C° 0 mm 1 mps 757 mmHg 54%
    10:00 +39°C° 0 mm 1 mps 757 mmHg 42%
    11:00 +39°C° 0 mm 2 mps 756 mmHg 42%
    12:00 +39°C° 0 mm 3 mps 756 mmHg 43%
    13:00 +38°C° 0 mm 4 mps 755 mmHg 44%
    14:00 +37°C° 0.2 mm 4 mps 754 mmHg 50%
    15:00 +36°C° 0.2 mm 3 mps 754 mmHg 56%
    16:00 +35°C° 0.2 mm 3 mps 754 mmHg 62%
    17:00 +33°C° 0.3 mm 3 mps 754 mmHg 71%
    18:00 +30°C° 0.3 mm 2 mps 755 mmHg 79%
    19:00 +29°C° 0.3 mm 2 mps 756 mmHg 88%
    20:00 +28°C° 0.5 mm 2 mps 756 mmHg 89%
    21:00 +28°C° 0.5 mm 1 mps 757 mmHg 89%
    22:00 +28°C° 0.5 mm 1 mps 757 mmHg 90%
    23:00 +28°C° 0.6 mm 1 mps 757 mmHg 90%

    25 November, Sunday

    Time Temperature Precipitation Wind Pressure Humidity
    00:00 +27°C° 0.6 mm 1 mps 756 mmHg 90%
    01:00 +27°C° 0.6 mm 1 mps 756 mmHg 89%
    02:00 +27°C° 0.4 mm 1 mps 756 mmHg 89%
    03:00 +27°C° 0.4 mm 1 mps 756 mmHg 88%
    04:00 +26°C° 0.4 mm 1 mps 756 mmHg 88%
    05:00 +27°C° 0.4 mm 1 mps 756 mmHg 85%
    06:00 +27°C° 0.4 mm 1 mps 757 mmHg 83%
    07:00 +28°C° 0.4 mm 1 mps 757 mmHg 81%
    08:00 +30°C° 0.7 mm 2 mps 757 mmHg 72%
    09:00 +32°C° 0.7 mm 2 mps 758 mmHg 64%
    10:00 +35°C° 0.7 mm 2 mps 758 mmHg 56%
    11:00 +35°C° 0.2 mm 2 mps 757 mmHg 58%
    12:00 +35°C° 0.2 mm 3 mps 756 mmHg 59%
    13:00 +35°C° 0.2 mm 3 mps 755 mmHg 60%
    14:00 +34°C° 0.4 mm 3 mps 755 mmHg 64%
    15:00 +33°C° 0.4 mm 3 mps 755 mmHg 68%
    16:00 +33°C° 0.4 mm 3 mps 754 mmHg 72%
    17:00 +30°C° 0.7 mm 2 mps 755 mmHg 79%
    18:00 +29°C° 0.7 mm 2 mps 755 mmHg 86%
    19:00 +28°C° 0.7 mm 2 mps 756 mmHg 93%
    20:00 +27°C° 0.2 mm 2 mps 756 mmHg 93%
    21:00 +27°C° 0.2 mm 2 mps 757 mmHg 93%
    22:00 +27°C° 0.2 mm 2 mps 757 mmHg 93%
    23:00 +27°C° 0.2 mm 2 mps 757 mmHg 93%

    26 November, Monday

    Time Temperature Precipitation Wind Pressure Humidity
    00:00 +27°C° 0.2 mm 1 mps 756 mmHg 93%
    01:00 +26°C° 0.2 mm 1 mps 756 mmHg 92%
    02:00 +26°C° 0.1 mm 1 mps 756 mmHg 92%
    03:00 +26°C° 0.1 mm 1 mps 756 mmHg 91%
    04:00 +26°C° 0.1 mm 1 mps 755 mmHg 91%
    05:00 +26°C° 0.2 mm 1 mps 756 mmHg 88%
    06:00 +27°C° 0.2 mm 1 mps 756 mmHg 86%
    07:00 +27°C° 0.2 mm 1 mps 757 mmHg 83%
    08:00 +30°C° 0 mm 1 mps 757 mmHg 73%
    09:00 +33°C° 0 mm 1 mps 757 mmHg 62%
    10:00 +35°C° 0 mm 1 mps 757 mmHg 51%
    11:00 +36°C° 0 mm 2 mps 756 mmHg 51%
    12:00 +36°C° 0 mm 2 mps 755 mmHg 51%
    13:00 +36°C° 0 mm 3 mps 755 mmHg 52%
    14:00 +36°C° 0.1 mm 3 mps 755 mmHg 56%
    15:00 +35°C° 0.1 mm 3 mps 754 mmHg 61%
    16:00 +34°C° 0.1 mm 2 mps 754 mmHg 65%
    17:00 +31°C° 0 mm 2 mps 755 mmHg 72%
    18:00 +30°C° 0 mm 2 mps 755 mmHg 79%
    19:00 +28°C° 0 mm 1 mps 756 mmHg 87%
    20:00 +28°C° 0.1 mm 1 mps 756 mmHg 88%
    21:00 +28°C° 0.1 mm 1 mps 757 mmHg 90%
    22:00 +27°C° 0.1 mm 1 mps 757 mmHg 91%
    23:00 +27°C° 0.6 mm 1 mps 757 mmHg 91%
    Show more